Regional Weather Roundup
Issued by NWS

Home | Current Version | Previous Version | Text Only | Print | Product List | Glossary On
Versions: 1 2 3 4 5 6 7 8 9 10 11 12 13 14 15 16 17 18 19 20 21 22 23 24 25 26 27 28 29 30 31 32 33 34 35 36 37 38 39 40 41 42 43 44 45 46 47 48
000
ASUS43 KDMX 282307
RWRIA

WEATHER ROUNDUP FOR IOWA
NATIONAL WEATHER SERVICE DES MOINES IA
600 PM CDT THU MAY 28 2015

NOTE: "FAIR" INDICATES FEW OR NO CLOUDS BELOW 12,000 FEET WITH NO
SIGNIFICANT WEATHER AND/OR OBSTRUCTIONS TO VISIBILITY.

* - THESE STATIONS ARE NOT NWS STATIONS...THUS NOT UNDER NWS
QUALITY CONTROL.  THEY ALSO DO NOT REPORT WEATHER SUCH
AS PRECIPITATION OR FOG.

IAZ001>003-012>014-020>022-031>034-043>046-290000-
   NORTHWEST IOWA

CITY           SKY/WX    TMP DP  RH WIND       PRES   REMARKS
CARROLL *      PTSUNNY   70  63  78 S18       29.98F
CHEROKEE *     CLOUDY    70  63  78 S12       29.94F
DENISON *      PTSUNNY   68  68 100 S10G18    29.94F
LE MARS *      MOSUNNY   72  59  64 S10       29.93F
ORANGE CITY *  SUNNY     70  61  73 S10       29.92F
SHELDON *      SUNNY     73  57  56 S23       29.91F
SIOUX CITY     CLOUDY    73  61  65 SE17G23   29.91F
SPENCER        CLOUDY    73  59  61 S18G26    29.95F
STORM LAKE *   PTSUNNY   64  63  94 S20G25    29.96F
$$

IAZ055>058-069>071-079>083-090>094-290000-
   SOUTHWEST IOWA

CITY           SKY/WX    TMP DP  RH WIND       PRES   REMARKS
ATLANTIC *     PTSUNNY   70  64  83 SE9       29.97F
AUDUBON *      MOSUNNY   68  63  83 S6        29.99F
CLARINDA *     MOSUNNY   73  64  73 S10       29.97F
COUNCIL BLFS * PTSUNNY   72  68  88 S8G18     29.94F
CRESTON *      PTSUNNY   72  64  78 S8        30.00F
HARLAN  *      PTSUNNY   70  70 100 S8        29.99F
LAMONI         CLOUDY    76  65  68 SE7       30.02F
RED OAK *      SUNNY     72  64  78 S9        29.96F
SHENANDOAH *   PTSUNNY   72  66  83 SE9       29.96F
$$

IAZ047>049-059>061-072>074-084-290000-
   CENTRAL IOWA

CITY           SKY/WX    TMP DP  RH WIND       PRES   REMARKS
AMES           CLOUDY    72  61  68 S14       30.01F
ANKENY *       MOSUNNY   72  64  78 SE8       30.01F
CHARITON *     PTSUNNY   73  66  78 E15       30.02F
DES MOINES     CLOUDY    74  62  66 SE12      30.01F
GRINNELL*      CLOUDY    73  59  60 S9        30.05S
KNOXVILLE *    MOSUNNY   73  64  73 SE9       30.02F
MARSHALLTOWN   CLOUDY    74  58  57 S12       30.02F
PELLA *        CLOUDY    73  66  78 SE6       30.05S
PERRY *        PTSUNNY   73  63  68 S13G20    30.00F
$$

IAZ004>006-015-016-023>025-035-036-290000-
   NORTH CENTRAL IOWA

CITY           SKY/WX    TMP DP  RH WIND       PRES   REMARKS
ALGONA *       MOSUNNY   75 -33   1 S21G28    29.98F
CLARION *      MOSUNNY   77  57  50 S23       29.99F
ESTHERVILLE    CLOUDY    74  57  55 S24       29.95F
FORT DODGE *   CLOUDY    72  61  68 S7        30.00F
MASON CITY     MOSUNNY   79  53  40 S17       30.00F
FOREST CITY *    N/A     75  50  41 S16G23    29.98F
IOWA FALLS *     N/A     75  54  46 S15       30.02F
$$

IAZ007>011-017>019-026>030-037>042-050>054-066-290000-
   NORTHEAST IOWA

CITY           SKY/WX    TMP DP  RH WIND       PRES   REMARKS
CEDAR RAPIDS   MOSUNNY   78  53  41 S10       30.04S
CHARLES CITY * MOSUNNY   81  52  36 S18G24    30.01F HX  80
CLINTON *      MOSUNNY   81  54  39 S14       30.08F HX  80
DECORAH *      MOSUNNY   79  52  38 S13G20    30.03S
DUBUQUE        MOSUNNY   77  53  43 S12G22    30.06F
MONTICELLO *   SUNNY     81  48  32 S16       30.05S HX  80
OELWEIN *      SUNNY     79  52  38 S18       30.04F
WATERLOO       MOSUNNY   79  53  40 S9        30.01F
$$

IAZ064-065-067-068-078-290000-
   EAST CENTRAL IOWA

CITY           SKY/WX    TMP DP  RH WIND       PRES   REMARKS
DAVENPORT      MOSUNNY   83  47  28 SE17      30.06F HX  81
IOWA CITY      MOSUNNY   78  53  41 SE14      30.05S
MT. PLEASANT * CLOUDY    75  59  57 SE7       30.05F
MUSCATINE *    SUNNY     79  54  41 S12       30.05S
QUAD CITIES    MOSUNNY   80  51  36 SE12      30.04F HX  80
$$

IAZ062-063-075>077-085>089-095>099-290000-
   SOUTHEAST IOWA

CITY           SKY/WX    TMP DP  RH WIND       PRES   REMARKS
BURLINGTON     PTSUNNY   78  61  55 S7        30.05S HX  80
FAIRFIELD *    PTSUNNY   75  59  57 SE6       30.05S
FORT MADISON * CLOUDY    72  63  73 SW14G26   30.08R
KEOKUK *       RAIN      68  66  94 S5        30.06F
OSKALOOSA *    RAIN      68  64  88 CALM      30.07R
CENTERVILLE *  MOSUNNY   68  68 100 SE14      30.06F
OTTUMWA        TSTM      67  66  97 S9        30.06R VSB 1
WASHINGTON *   MOSUNNY   77  55  47 S9        30.06S
$$

ABBREVIATIONS USED IN REMARKS
   TC - TEMPERATURES IN CELSIUS
  WCI - WIND CHILL INDEX
   HX - HEAT INDEX
  VSB - VISIBILITY
$$



USA.gov is the U.S. government's official web portal to all federal, state and local government web resources and services.